timestamp,wind_dir_avg,wind_spd_avg,wind_spd_max_dir,wind_spd_gust,battery_voltage,lat,long
2020-12-31 00:04:01+00:00,306.0,9.79,305.0,11.93,12.41,47.59359,-54.27349
2020-12-31 00:14:01+00:00,301.0,7.99,304.0,10.24,12.41,47.59359,-54.27349
2020-12-31 00:24:01+00:00,300.0,6.98,302.0,8.31,12.41,47.59359,-54.27349
2020-12-31 00:34:01+00:00,297.0,9.0,291.0,10.71,12.41,47.59359,-54.27349
2020-12-31 00:44:01+00:00,300.0,9.53,307.0,12.58,12.41,47.59359,-54.27349
2020-12-31 00:54:01+00:00,302.0,8.95,298.0,10.45,12.41,47.59359,-54.27349
2020-12-31 01:04:01+00:00,306.0,6.56,306.0,7.66,12.41,47.59359,-54.27349
2020-12-31 01:14:01+00:00,298.0,5.44,306.0,6.51,12.33,47.59359,-54.27349
2020-12-31 01:24:01+00:00,312.0,6.76,314.0,7.79,12.33,47.59359,-54.27349
2020-12-31 01:34:01+00:00,307.0,6.04,303.0,6.98,12.33,47.59359,-54.27349
2020-12-31 01:44:01+00:00,306.0,5.63,318.0,7.0,12.33,47.59359,-54.27349
2020-12-31 01:54:01+00:00,312.0,6.07,311.0,7.33,12.33,47.59359,-54.27349
2020-12-31 02:04:01+00:00,292.0,5.46,290.0,6.86,12.33,47.59359,-54.27349
2020-12-31 02:14:01+00:00,283.0,8.85,279.0,10.14,12.33,47.59359,-54.27349
2020-12-31 02:24:01+00:00,284.0,9.01,285.0,10.78,12.33,47.59359,-54.27349
2020-12-31 02:34:01+00:00,302.0,7.96,303.0,10.48,12.33,47.59359,-54.27349
2020-12-31 02:44:01+00:00,304.0,7.38,301.0,8.92,12.33,47.59359,-54.27349
2020-12-31 02:54:01+00:00,314.0,8.07,307.0,10.8,12.33,47.59359,-54.27349
2020-12-31 03:04:01+00:00,312.0,5.9,319.0,7.23,12.33,47.59359,-54.27349
2020-12-31 03:14:01+00:00,306.0,5.99,302.0,7.17,12.25,47.59359,-54.27349
2020-12-31 03:24:01+00:00,296.0,5.74,298.0,6.45,12.25,47.59359,-54.27349
2020-12-31 03:34:01+00:00,302.0,6.16,291.0,7.04,12.25,47.59359,-54.27349
2020-12-31 03:44:01+00:00,303.0,5.61,296.0,6.77,12.25,47.59359,-54.27349
2020-12-31 03:54:01+00:00,307.0,6.49,303.0,7.37,12.25,47.59359,-54.27349
2020-12-31 04:04:01+00:00,308.0,5.79,315.0,7.9,12.25,47.59359,-54.27349
2020-12-31 04:14:01+00:00,284.0,6.56,282.0,8.1,12.25,47.59359,-54.27349
2020-12-31 04:24:01+00:00,297.0,5.13,306.0,6.93,12.25,47.59359,-54.27349
2020-12-31 04:34:01+00:00,277.0,7.95,273.0,9.21,12.25,47.59359,-54.27349
2020-12-31 04:44:01+00:00,298.0,9.77,299.0,11.62,12.25,47.59359,-54.27349
2020-12-31 04:54:01+00:00,299.0,8.57,299.0,9.51,12.25,47.59359,-54.27349
2020-12-31 05:04:01+00:00,294.0,5.22,300.0,6.54,12.25,47.59359,-54.27349
2020-12-31 05:14:01+00:00,296.0,3.71,308.0,4.99,12.25,47.59359,-54.27349
2020-12-31 05:24:01+00:00,270.0,5.44,268.0,6.33,12.25,47.59359,-54.27349
2020-12-31 05:34:01+00:00,291.0,4.61,293.0,6.15,12.25,47.59359,-54.27349
2020-12-31 05:44:01+00:00,294.0,5.15,290.0,7.15,12.25,47.59359,-54.27349
2020-12-31 05:54:01+00:00,302.0,5.22,311.0,5.88,12.25,47.59359,-54.27349
2020-12-31 06:04:01+00:00,297.0,5.04,292.0,6.31,12.25,47.59359,-54.27349
2020-12-31 06:14:01+00:00,295.0,4.74,292.0,5.79,12.25,47.59359,-54.27349
2020-12-31 06:24:01+00:00,290.0,4.24,292.0,5.57,12.25,47.59359,-54.27349
2020-12-31 06:34:01+00:00,293.0,4.12,287.0,4.87,12.25,47.59359,-54.27349
2020-12-31 06:44:01+00:00,293.0,3.65,281.0,5.72,12.25,47.59359,-54.27349
2020-12-31 06:54:01+00:00,282.0,4.06,285.0,5.39,12.25,47.59359,-54.27349
2020-12-31 07:04:01+00:00,291.0,3.68,302.0,4.64,12.25,47.59359,-54.27349
2020-12-31 07:14:01+00:00,280.0,3.05,283.0,4.61,12.25,47.59359,-54.27349
2020-12-31 07:24:01+00:00,291.0,2.57,291.0,3.19,12.25,47.59359,-54.27349
2020-12-31 07:34:01+00:00,267.0,4.13,283.0,6.17,12.25,47.59359,-54.27349
2020-12-31 07:44:01+00:00,290.0,4.61,281.0,5.79,12.25,47.59359,-54.27349
2020-12-31 07:54:01+00:00,286.0,3.28,298.0,4.23,12.25,47.59359,-54.27349
2020-12-31 08:04:01+00:00,283.0,3.64,285.0,4.67,12.25,47.59359,-54.27349
2020-12-31 08:14:01+00:00,269.0,4.31,274.0,4.82,12.25,47.59359,-54.27349
2020-12-31 08:24:01+00:00,274.0,3.73,287.0,4.46,12.25,47.59359,-54.27349
2020-12-31 08:34:01+00:00,259.0,4.5,257.0,5.28,12.25,47.59359,-54.27349
2020-12-31 08:44:01+00:00,272.0,3.27,291.0,4.39,12.25,47.59359,-54.27349
2020-12-31 08:54:01+00:00,273.0,4.13,273.0,5.45,12.25,47.59359,-54.27349
2020-12-31 09:04:01+00:00,259.0,4.49,253.0,5.41,12.25,47.59359,-54.27349
2020-12-31 09:14:01+00:00,264.0,2.92,263.0,3.4,12.25,47.59359,-54.27349
2020-12-31 09:24:01+00:00,261.0,4.16,267.0,4.85,12.25,47.59359,-54.27349
2020-12-31 09:34:01+00:00,260.0,4.45,255.0,5.51,12.25,47.59359,-54.27349
2020-12-31 09:44:01+00:00,269.0,5.77,272.0,6.52,12.25,47.59359,-54.27349
2020-12-31 09:54:01+00:00,254.0,6.28,258.0,7.34,12.25,47.59359,-54.27349
2020-12-31 10:04:01+00:00,250.0,7.12,249.0,7.98,12.25,47.59359,-54.27349
2020-12-31 10:14:01+00:00,244.0,6.84,241.0,8.04,12.25,47.59359,-54.27349
2020-12-31 10:24:01+00:00,253.0,5.37,258.0,7.08,12.25,47.59359,-54.27349
2020-12-31 10:34:01+00:00,255.0,5.33,252.0,6.23,12.25,47.59359,-54.27349
2020-12-31 10:44:01+00:00,259.0,5.5,261.0,6.16,12.25,47.59359,-54.27349
2020-12-31 10:54:01+00:00,255.0,4.87,254.0,5.96,12.25,47.59359,-54.27349
2020-12-31 11:04:01+00:00,244.0,5.13,235.0,5.7,12.25,47.59359,-54.27349
2020-12-31 11:14:01+00:00,244.0,6.05,238.0,6.93,12.25,47.59359,-54.27349
2020-12-31 11:24:01+00:00,247.0,6.42,242.0,7.32,12.25,47.59359,-54.27349
2020-12-31 11:34:01+00:00,242.0,5.87,237.0,6.82,12.25,47.59359,-54.27349
2020-12-31 11:44:01+00:00,249.0,5.92,250.0,6.46,12.25,47.59359,-54.27349
2020-12-31 11:54:01+00:00,248.0,6.15,244.0,7.48,12.25,47.59359,-54.27349
2020-12-31 12:04:01+00:00,245.0,6.2,239.0,7.21,12.25,47.59359,-54.27349
2020-12-31 12:14:01+00:00,254.0,4.75,250.0,5.33,13.37,47.59359,-54.27349
2020-12-31 12:24:01+00:00,256.0,4.07,256.0,5.07,13.37,47.59359,-54.27349
2020-12-31 12:34:01+00:00,229.0,4.63,235.0,5.62,13.37,47.59359,-54.27349
2020-12-31 12:44:01+00:00,244.0,4.91,243.0,5.62,13.37,47.59359,-54.27349
2020-12-31 12:54:01+00:00,236.0,5.6,238.0,6.43,13.37,47.59359,-54.27349
2020-12-31 13:04:01+00:00,239.0,6.64,235.0,7.47,13.37,47.59359,-54.27349
2020-12-31 13:14:01+00:00,248.0,5.92,251.0,7.17,13.68,47.59359,-54.27349
2020-12-31 13:24:01+00:00,251.0,8.19,254.0,9.09,13.68,47.59359,-54.27349
2020-12-31 13:34:01+00:00,239.0,6.79,242.0,7.65,13.68,47.59359,-54.27349
2020-12-31 13:44:01+00:00,221.0,6.05,226.0,7.5,13.68,47.59359,-54.27349
2020-12-31 13:54:01+00:00,226.0,5.76,225.0,7.69,13.68,47.59359,-54.27349
2020-12-31 14:04:01+00:00,240.0,8.07,242.0,9.08,13.68,47.59359,-54.27349
2020-12-31 14:14:01+00:00,232.0,9.67,235.0,12.02,13.21,47.59359,-54.27349
2020-12-31 14:24:01+00:00,241.0,9.95,242.0,11.31,13.21,47.59359,-54.27349
2020-12-31 14:34:01+00:00,244.0,10.65,248.0,11.73,13.21,47.59359,-54.27349
2020-12-31 14:44:01+00:00,221.0,8.52,223.0,10.51,13.21,47.59359,-54.27349
2020-12-31 14:54:01+00:00,232.0,7.1,231.0,9.54,13.21,47.59359,-54.27349
2020-12-31 15:04:01+00:00,231.0,7.53,235.0,8.36,13.21,47.59359,-54.27349
2020-12-31 15:14:01+00:00,235.0,6.76,235.0,8.04,13.05,47.59359,-54.27349
2020-12-31 15:24:01+00:00,228.0,6.09,229.0,6.98,13.05,47.59359,-54.27349
2020-12-31 15:34:01+00:00,221.0,6.82,216.0,7.8,13.05,47.59359,-54.27349
2020-12-31 15:44:01+00:00,214.0,8.68,214.0,10.12,13.05,47.59359,-54.27349
2020-12-31 15:54:01+00:00,215.0,10.51,213.0,12.2,13.05,47.59359,-54.27349
2020-12-31 16:04:01+00:00,223.0,11.71,226.0,13.89,13.05,47.59359,-54.27349
2020-12-31 16:14:01+00:00,213.0,10.6,216.0,12.41,12.89,47.59359,-54.27349
2020-12-31 16:24:01+00:00,225.0,10.0,229.0,11.71,12.89,47.59359,-54.27349
2020-12-31 16:34:01+00:00,215.0,11.1,222.0,13.48,12.89,47.59359,-54.27349
2020-12-31 16:44:01+00:00,214.0,9.1,218.0,10.65,12.89,47.59359,-54.27349
2020-12-31 16:54:01+00:00,206.0,10.55,208.0,12.88,12.89,47.59359,-54.27349
2020-12-31 17:04:01+00:00,207.0,12.58,210.0,14.41,12.89,47.59359,-54.27349
2020-12-31 17:14:01+00:00,201.0,11.74,202.0,13.12,12.73,47.59359,-54.27349
2020-12-31 17:24:01+00:00,191.0,9.53,194.0,10.72,12.73,47.59359,-54.27349
2020-12-31 17:34:01+00:00,196.0,11.54,197.0,13.21,12.73,47.59359,-54.27349
2020-12-31 17:44:01+00:00,189.0,12.49,188.0,14.15,12.73,47.59359,-54.27349
2020-12-31 17:54:01+00:00,193.0,12.53,193.0,13.54,12.73,47.59359,-54.27349
2020-12-31 18:04:01+00:00,189.0,12.53,194.0,14.24,12.73,47.59359,-54.27349
2020-12-31 19:14:01+00:00,182.0,14.97,185.0,16.89,12.57,47.59359,-54.27349
2020-12-31 19:24:01+00:00,180.0,15.74,180.0,17.65,12.57,47.59359,-54.27349
2020-12-31 19:34:01+00:00,181.0,14.24,177.0,15.71,12.57,47.59359,-54.27349
2020-12-31 19:44:01+00:00,184.0,14.46,181.0,15.99,12.57,47.59359,-54.27349
2020-12-31 19:54:01+00:00,187.0,14.53,187.0,17.05,12.57,47.59359,-54.27349
2020-12-31 20:04:01+00:00,194.0,14.35,200.0,16.8,12.57,47.59359,-54.27349
2020-12-31 20:14:01+00:00,185.0,14.03,184.0,17.2,12.49,47.59359,-54.27349
2020-12-31 20:24:01+00:00,188.0,14.39,198.0,16.2,12.49,47.59359,-54.27349
2020-12-31 20:34:01+00:00,187.0,13.27,183.0,15.19,12.49,47.59359,-54.27349
2020-12-31 20:44:01+00:00,179.0,17.12,182.0,18.93,12.49,47.59359,-54.27349
2020-12-31 20:54:01+00:00,179.0,17.84,179.0,22.29,12.49,47.59359,-54.27349
2020-12-31 21:04:01+00:00,182.0,17.83,190.0,21.99,12.49,47.59359,-54.27349
2020-12-31 21:14:01+00:00,187.0,16.15,183.0,19.86,12.49,47.59359,-54.27349
2020-12-31 21:24:01+00:00,190.0,16.11,186.0,19.5,12.49,47.59359,-54.27349
2020-12-31 21:34:01+00:00,187.0,16.72,185.0,18.92,12.49,47.59359,-54.27349
2020-12-31 21:44:01+00:00,185.0,17.99,184.0,21.18,12.49,47.59359,-54.27349
2020-12-31 21:54:01+00:00,181.0,17.77,186.0,19.87,12.49,47.59359,-54.27349
2020-12-31 22:04:01+00:00,185.0,16.86,185.0,19.44,12.49,47.59359,-54.27349
2020-12-31 22:14:01+00:00,185.0,19.88,184.0,24.1,12.41,47.59359,-54.27349
2020-12-31 22:24:01+00:00,183.0,21.94,186.0,25.78,12.41,47.59359,-54.27349
2020-12-31 22:34:01+00:00,183.0,18.16,181.0,21.42,12.41,47.59359,-54.27349
2020-12-31 22:44:01+00:00,186.0,18.77,193.0,25.28,12.41,47.59359,-54.27349
2020-12-31 22:54:01+00:00,185.0,18.72,188.0,22.71,12.41,47.59359,-54.27349
2020-12-31 23:04:01+00:00,187.0,19.39,194.0,23.19,12.41,47.59359,-54.27349
2020-12-31 23:14:01+00:00,191.0,21.13,194.0,24.98,12.41,47.59359,-54.27349
2020-12-31 23:24:01+00:00,189.0,19.49,189.0,23.07,12.41,47.59359,-54.27349
2020-12-31 23:34:01+00:00,192.0,20.37,196.0,23.82,12.41,47.59359,-54.27349
2020-12-31 23:44:01+00:00,195.0,21.0,200.0,23.6,12.41,47.59359,-54.27349
2020-12-31 23:54:01+00:00,198.0,17.91,198.0,22.93,12.41,47.59359,-54.27349
